Location: Gauravaram
(16.6995°N, 80.5417°E)
Time: 12:25:27
(UTC+00:00)

CZ-4B DEB - Pass Details

Date: 03 August 2024
Orbit: 835 x 857 km, 99.0° (Epoch: 18 September)

Event Time Altitude Azimuth Distance (km) Brightness Sun altitude
Exits shadow 14:18:21 - 166° (SSE) 2,574 6.4 -16.3°
Reaches altitude 10° 14:18:38 10° 166° (SSE) 2,459 6.3 -16.4°
Maximum altitude 14:24:06 90° 69° (ENE) 852 4.2 -17.6°
Drops below altitude 10° 14:29:37 10° 347° (NNW) 2,478 7.1 -18.7°
Sets 14:31:59 0° 348° (NNW) 3,417 7.9 -19.3°
